Year,Month,Day,Hour,Minute,Value (Times are PST for temperature in C)
2017,06,23,00,00,13.70
2017,06,23,00,01,13.70
2017,06,23,00,02,13.70
2017,06,23,00,03,13.70
2017,06,23,00,04,13.60
2017,06,23,00,05,13.60
2017,06,23,00,06,13.60
2017,06,23,00,07,13.50
2017,06,23,00,08,13.50
2017,06,23,00,09,13.50
2017,06,23,00,10,13.40
2017,06,23,00,11,13.40
2017,06,23,00,12,13.40
2017,06,23,00,13,13.40
2017,06,23,00,14,13.40
2017,06,23,00,15,13.40
2017,06,23,00,16,13.40
2017,06,23,00,17,13.30
2017,06,23,00,18,13.30
2017,06,23,00,19,13.30
2017,06,23,00,20,13.30
2017,06,23,00,21,13.30
2017,06,23,00,22,13.30
2017,06,23,00,23,13.30
2017,06,23,00,24,13.30
2017,06,23,00,25,13.30
2017,06,23,00,26,13.20
2017,06,23,00,27,13.20
2017,06,23,00,28,13.20
2017,06,23,00,29,13.20
2017,06,23,00,30,13.20
2017,06,23,00,31,13.20
2017,06,23,00,32,13.20
2017,06,23,00,33,13.20
2017,06,23,00,34,13.20
2017,06,23,00,35,13.20
2017,06,23,00,36,13.10
2017,06,23,00,37,13.10
2017,06,23,00,38,13.10
2017,06,23,00,39,13.10
2017,06,23,00,40,13.10
2017,06,23,00,41,13.00
2017,06,23,00,42,13.00
2017,06,23,00,43,12.90
2017,06,23,00,44,12.90
2017,06,23,00,45,12.90
2017,06,23,00,46,12.80
2017,06,23,00,47,12.80
2017,06,23,00,48,12.80
2017,06,23,00,49,12.80
2017,06,23,00,50,12.70
2017,06,23,00,51,12.70
2017,06,23,00,52,12.70
2017,06,23,00,53,12.70
2017,06,23,00,54,12.60
2017,06,23,00,55,12.60
2017,06,23,00,56,12.60
2017,06,23,00,57,12.60
2017,06,23,00,58,12.60
2017,06,23,00,59,12.60
2017,06,23,01,00,12.60
2017,06,23,01,01,12.60
2017,06,23,01,02,12.60
2017,06,23,01,03,12.60
2017,06,23,01,04,12.60
2017,06,23,01,05,12.60
2017,06,23,01,06,12.70
2017,06,23,01,07,12.60
2017,06,23,01,08,12.60
2017,06,23,01,09,12.60
2017,06,23,01,10,12.60
2017,06,23,01,11,12.60
2017,06,23,01,12,12.60
2017,06,23,01,13,12.60
2017,06,23,01,14,12.60
2017,06,23,01,15,12.60
2017,06,23,01,16,12.60
2017,06,23,01,17,12.60
2017,06,23,01,18,12.60
2017,06,23,01,19,12.50
2017,06,23,01,20,12.50
2017,06,23,01,21,12.50
2017,06,23,01,22,12.50
2017,06,23,01,23,12.50
2017,06,23,01,24,12.40
2017,06,23,01,25,12.40
2017,06,23,01,26,12.40
2017,06,23,01,27,12.40
2017,06,23,01,28,12.40
2017,06,23,01,29,12.40
2017,06,23,01,30,12.40
2017,06,23,01,31,12.40
2017,06,23,01,32,12.40
2017,06,23,01,33,12.30
2017,06,23,01,34,12.30
2017,06,23,01,35,12.30
2017,06,23,01,36,12.30
2017,06,23,01,37,12.30
2017,06,23,01,38,12.30
2017,06,23,01,39,12.30
2017,06,23,01,40,12.20
2017,06,23,01,41,12.20
2017,06,23,01,42,12.20
2017,06,23,01,43,12.20
2017,06,23,01,44,12.20
2017,06,23,01,45,12.20
2017,06,23,01,46,12.10
2017,06,23,01,47,12.10
2017,06,23,01,48,12.10
2017,06,23,01,49,12.10
2017,06,23,01,50,12.10
2017,06,23,01,51,12.10
2017,06,23,01,52,12.00
2017,06,23,01,53,12.00
2017,06,23,01,54,12.00
2017,06,23,01,55,12.00
2017,06,23,01,56,11.90
2017,06,23,01,57,11.90
2017,06,23,01,58,11.90
2017,06,23,01,59,11.90
2017,06,23,02,00,11.90
2017,06,23,02,01,11.90
2017,06,23,02,02,11.80
2017,06,23,02,03,11.80
2017,06,23,02,04,11.80
2017,06,23,02,05,11.80
2017,06,23,02,06,11.80
2017,06,23,02,07,11.70
2017,06,23,02,08,11.70
2017,06,23,02,09,11.70
2017,06,23,02,10,11.70
2017,06,23,02,11,11.70
2017,06,23,02,12,11.70
2017,06,23,02,13,11.60
2017,06,23,02,14,11.60
2017,06,23,02,15,11.60
2017,06,23,02,16,11.60
2017,06,23,02,17,11.60
2017,06,23,02,18,11.60
2017,06,23,02,19,11.60
2017,06,23,02,20,11.60
2017,06,23,02,21,11.50
2017,06,23,02,22,11.50
2017,06,23,02,23,11.50
2017,06,23,02,24,11.50
2017,06,23,02,25,11.50
2017,06,23,02,26,11.40
2017,06,23,02,27,11.40
2017,06,23,02,28,11.40
2017,06,23,02,29,11.40
2017,06,23,02,30,11.40
2017,06,23,02,31,11.40
2017,06,23,02,32,11.40
2017,06,23,02,33,11.40
2017,06,23,02,34,11.40
2017,06,23,02,35,11.40
2017,06,23,02,36,11.30
2017,06,23,02,37,11.30
2017,06,23,02,38,11.30
2017,06,23,02,39,11.30
2017,06,23,02,40,11.30
2017,06,23,02,41,11.30
2017,06,23,02,42,11.30
2017,06,23,02,43,11.30
2017,06,23,02,44,11.30
2017,06,23,02,45,11.30
2017,06,23,02,46,11.20
2017,06,23,02,47,11.20
2017,06,23,02,48,11.20
2017,06,23,02,49,11.20
2017,06,23,02,50,11.20
2017,06,23,02,51,11.20
2017,06,23,02,52,11.20
2017,06,23,02,53,11.20
2017,06,23,02,54,11.20
2017,06,23,02,55,11.20
2017,06,23,02,56,11.20
2017,06,23,02,57,11.20
2017,06,23,02,58,11.20
2017,06,23,02,59,11.20
2017,06,23,03,00,11.20
2017,06,23,03,01,11.10
2017,06,23,03,02,11.10
2017,06,23,03,03,11.10
2017,06,23,03,04,11.10
2017,06,23,03,05,11.10
2017,06,23,03,06,11.10
2017,06,23,03,07,11.10
2017,06,23,03,08,11.10
2017,06,23,03,09,11.10
2017,06,23,03,10,11.10
2017,06,23,03,11,11.10
2017,06,23,03,12,11.10
2017,06,23,03,13,11.10
2017,06,23,03,14,11.10
2017,06,23,03,15,11.00
2017,06,23,03,16,11.00
2017,06,23,03,17,11.00
2017,06,23,03,18,10.90
2017,06,23,03,19,10.90
2017,06,23,03,20,10.90
2017,06,23,03,21,10.90
2017,06,23,03,22,10.90
2017,06,23,03,23,10.90
2017,06,23,03,24,10.80
2017,06,23,03,25,10.80
2017,06,23,03,26,10.80
2017,06,23,03,27,10.80
2017,06,23,03,28,10.80
2017,06,23,03,29,10.80
2017,06,23,03,30,10.80
2017,06,23,03,31,10.80
2017,06,23,03,32,10.80
2017,06,23,03,33,10.80
2017,06,23,03,34,10.70
2017,06,23,03,35,10.70
2017,06,23,03,36,10.70
2017,06,23,03,37,10.70
2017,06,23,03,38,10.70
2017,06,23,03,39,10.70
2017,06,23,03,40,10.60
2017,06,23,03,41,10.60
2017,06,23,03,42,10.60
2017,06,23,03,43,10.60
2017,06,23,03,44,10.60
2017,06,23,03,45,10.60
2017,06,23,03,46,10.60
2017,06,23,03,47,10.50
2017,06,23,03,48,10.50
2017,06,23,03,49,10.50
2017,06,23,03,50,10.40
2017,06,23,03,51,10.40
2017,06,23,03,52,10.40
2017,06,23,03,53,10.40
2017,06,23,03,54,10.30
2017,06,23,03,55,10.30
2017,06,23,03,56,10.30
2017,06,23,03,57,10.30
2017,06,23,03,58,10.30
2017,06,23,03,59,10.30
2017,06,23,04,00,10.30
2017,06,23,04,01,10.30
2017,06,23,04,02,10.30
2017,06,23,04,03,10.20
2017,06,23,04,04,10.20
2017,06,23,04,05,10.20
2017,06,23,04,06,10.20
2017,06,23,04,07,10.20
2017,06,23,04,08,10.20
2017,06,23,04,09,10.20
2017,06,23,04,10,10.20
2017,06,23,04,11,10.20
2017,06,23,04,12,10.20
2017,06,23,04,13,10.20
2017,06,23,04,14,10.20
2017,06,23,04,15,10.20
2017,06,23,04,16,10.20
2017,06,23,04,17,10.20
2017,06,23,04,18,10.20
2017,06,23,04,19,10.20
2017,06,23,04,20,10.20
2017,06,23,04,21,10.20
2017,06,23,04,22,10.20
2017,06,23,04,23,10.20
2017,06,23,04,24,10.10
2017,06,23,04,25,10.10
2017,06,23,04,26,10.10
2017,06,23,04,27,10.10
2017,06,23,04,28,10.10
2017,06,23,04,29,10.00
2017,06,23,04,30,10.00
2017,06,23,04,31,10.00
2017,06,23,04,32,10.00
2017,06,23,04,33,10.00
2017,06,23,04,34,10.00
2017,06,23,04,35,10.00
2017,06,23,04,36,10.00
2017,06,23,04,37,10.00
2017,06,23,04,38,10.00
2017,06,23,04,39,10.00
2017,06,23,04,40,10.00
2017,06,23,04,41,10.00
2017,06,23,04,42,9.90
2017,06,23,04,43,9.90
2017,06,23,04,44,9.90
2017,06,23,04,45,9.90
2017,06,23,04,46,9.90
2017,06,23,04,47,9.90
2017,06,23,04,48,9.90
2017,06,23,04,49,9.80
2017,06,23,04,50,9.80
2017,06,23,04,51,9.80
2017,06,23,04,52,9.80
2017,06,23,04,53,9.80
2017,06,23,04,54,9.80
2017,06,23,04,55,9.80
2017,06,23,04,56,9.80
2017,06,23,04,57,9.80
2017,06,23,04,58,9.80
2017,06,23,04,59,9.80
2017,06,23,05,00,9.70
2017,06,23,05,01,9.70
2017,06,23,05,02,9.70
2017,06,23,05,03,9.70
2017,06,23,05,04,9.70
2017,06,23,05,05,9.70
2017,06,23,05,06,9.70
2017,06,23,05,07,9.70
2017,06,23,05,08,9.70
2017,06,23,05,09,9.70
2017,06,23,05,10,9.70
2017,06,23,05,11,9.70
2017,06,23,05,12,9.60
2017,06,23,05,13,9.60
2017,06,23,05,14,9.60
2017,06,23,05,15,9.60
2017,06,23,05,16,9.60
2017,06,23,05,17,9.60
2017,06,23,05,18,9.60
2017,06,23,05,19,9.50
2017,06,23,05,20,9.50
2017,06,23,05,21,9.50
2017,06,23,05,22,9.40
2017,06,23,05,23,9.40
2017,06,23,05,24,9.40
2017,06,23,05,25,9.40
2017,06,23,05,26,9.40
2017,06,23,05,27,9.40
2017,06,23,05,28,9.40
2017,06,23,05,29,9.40
2017,06,23,05,30,9.30
2017,06,23,05,31,9.30
2017,06,23,05,32,9.30
2017,06,23,05,33,9.30
2017,06,23,05,34,9.30
2017,06,23,05,35,9.30
2017,06,23,05,36,9.30
2017,06,23,05,37,9.30
2017,06,23,05,38,9.30
2017,06,23,05,39,9.30
2017,06,23,05,40,9.30
2017,06,23,05,41,9.30
2017,06,23,05,42,9.30
2017,06,23,05,43,9.30
2017,06,23,05,44,9.20
2017,06,23,05,45,9.20
2017,06,23,05,46,9.20
2017,06,23,05,47,9.20
2017,06,23,05,48,9.20
2017,06,23,05,49,9.20
2017,06,23,05,50,9.20
2017,06,23,05,51,9.20
2017,06,23,05,52,9.20
2017,06,23,05,53,9.20
2017,06,23,05,54,9.20
2017,06,23,05,55,9.20
2017,06,23,05,56,9.20
2017,06,23,05,57,9.20
2017,06,23,05,58,9.20
2017,06,23,05,59,9.20
2017,06,23,06,00,9.20
2017,06,23,06,01,9.20
2017,06,23,06,02,9.20
2017,06,23,06,03,9.20
2017,06,23,06,04,9.20
2017,06,23,06,05,9.20
2017,06,23,06,06,9.20
2017,06,23,06,07,9.20
2017,06,23,06,08,9.30
2017,06,23,06,09,9.30
2017,06,23,06,10,9.30
2017,06,23,06,11,9.30
2017,06,23,06,12,9.30
2017,06,23,06,13,9.30
2017,06,23,06,14,9.40
2017,06,23,06,15,9.40
2017,06,23,06,16,9.40
2017,06,23,06,17,9.40
2017,06,23,06,18,9.40
2017,06,23,06,19,9.40
2017,06,23,06,20,9.40
2017,06,23,06,21,9.40
2017,06,23,06,22,9.50
2017,06,23,06,23,9.50
2017,06,23,06,24,9.50
2017,06,23,06,25,9.60
2017,06,23,06,26,9.60
2017,06,23,06,27,9.60
2017,06,23,06,28,9.60
2017,06,23,06,29,9.60
2017,06,23,06,30,9.70
2017,06,23,06,31,9.70
2017,06,23,06,32,9.70
2017,06,23,06,33,9.80
2017,06,23,06,34,9.80
2017,06,23,06,35,9.80
2017,06,23,06,36,9.80
2017,06,23,06,37,9.90
2017,06,23,06,38,9.90
2017,06,23,06,39,10.00
2017,06,23,06,40,10.00
2017,06,23,06,41,10.00
2017,06,23,06,42,10.10
2017,06,23,06,43,10.10
2017,06,23,06,44,10.10
2017,06,23,06,45,10.20
2017,06,23,06,46,10.20
2017,06,23,06,47,10.20
2017,06,23,06,48,10.30
2017,06,23,06,49,10.40
2017,06,23,06,50,10.40
2017,06,23,06,51,10.50
2017,06,23,06,52,10.60
2017,06,23,06,53,10.70
2017,06,23,06,54,10.80
2017,06,23,06,55,10.90
2017,06,23,06,56,10.90
2017,06,23,06,57,11.00
2017,06,23,06,58,11.10
2017,06,23,06,59,11.20
2017,06,23,07,00,11.30
2017,06,23,07,01,11.40
2017,06,23,07,02,11.50
2017,06,23,07,03,11.60
2017,06,23,07,04,11.70
2017,06,23,07,05,11.80
2017,06,23,07,06,11.90
2017,06,23,07,07,12.00
2017,06,23,07,08,12.20
2017,06,23,07,09,12.30
2017,06,23,07,10,12.40
2017,06,23,07,11,12.50
2017,06,23,07,12,12.60
2017,06,23,07,13,12.70
2017,06,23,07,14,12.90
2017,06,23,07,15,13.00
2017,06,23,07,16,13.20
2017,06,23,07,17,13.30
2017,06,23,07,18,13.50
2017,06,23,07,19,13.70
2017,06,23,07,20,13.80
2017,06,23,07,21,14.00
2017,06,23,07,22,14.20
2017,06,23,07,23,14.30
2017,06,23,07,24,14.50
2017,06,23,07,25,14.70
2017,06,23,07,26,14.90
2017,06,23,07,27,15.00
2017,06,23,07,28,15.00
2017,06,23,07,29,15.20
2017,06,23,07,30,15.30
2017,06,23,07,31,15.40
2017,06,23,07,32,15.60
2017,06,23,07,33,15.60
2017,06,23,07,34,15.70
2017,06,23,07,35,15.80
2017,06,23,07,36,15.80
2017,06,23,07,37,15.80
2017,06,23,07,38,15.90
2017,06,23,07,39,15.90
2017,06,23,07,40,16.00
2017,06,23,07,41,16.10
2017,06,23,07,42,16.20
2017,06,23,07,43,16.30
2017,06,23,07,44,16.50
2017,06,23,07,45,16.60
2017,06,23,07,46,16.80
2017,06,23,07,47,16.90
2017,06,23,07,48,17.00
2017,06,23,07,49,17.10
2017,06,23,07,50,17.20
2017,06,23,07,51,17.30
2017,06,23,07,52,17.40
2017,06,23,07,53,17.50
2017,06,23,07,54,17.60
2017,06,23,07,55,17.70
2017,06,23,07,56,17.70
2017,06,23,07,57,17.80
2017,06,23,07,58,17.80
2017,06,23,07,59,17.80
2017,06,23,08,00,17.80
2017,06,23,08,01,17.80
2017,06,23,08,02,17.90
2017,06,23,08,03,17.90
2017,06,23,08,04,18.00
2017,06,23,08,05,18.10
2017,06,23,08,06,18.10
2017,06,23,08,07,18.20
2017,06,23,08,08,18.30
2017,06,23,08,09,18.40
2017,06,23,08,10,18.50
2017,06,23,08,11,18.60
2017,06,23,08,12,18.70
2017,06,23,08,13,18.80
2017,06,23,08,14,18.90
2017,06,23,08,15,19.00
2017,06,23,08,16,19.10
2017,06,23,08,17,19.20
2017,06,23,08,18,19.30
2017,06,23,08,19,19.30
2017,06,23,08,20,19.40
2017,06,23,08,21,19.50
2017,06,23,08,22,19.50
2017,06,23,08,23,19.60
2017,06,23,08,24,19.60
2017,06,23,08,25,19.60
2017,06,23,08,26,19.60
2017,06,23,08,27,19.60
2017,06,23,08,28,19.60
2017,06,23,08,29,19.60
2017,06,23,08,30,19.60
2017,06,23,08,31,19.60
2017,06,23,08,32,19.70
2017,06,23,08,33,19.70
2017,06,23,08,34,19.70
2017,06,23,08,35,19.80
2017,06,23,08,36,19.80
2017,06,23,08,37,19.90
2017,06,23,08,38,20.00
2017,06,23,08,39,20.10
2017,06,23,08,40,20.10
2017,06,23,08,41,20.20
2017,06,23,08,42,20.30
2017,06,23,08,43,20.30
2017,06,23,08,44,20.40
2017,06,23,08,45,20.50
2017,06,23,08,46,20.60
2017,06,23,08,47,20.70
2017,06,23,08,48,20.70
2017,06,23,08,49,20.80
2017,06,23,08,50,20.80
2017,06,23,08,51,20.90
2017,06,23,08,52,20.90
2017,06,23,08,53,20.90
2017,06,23,08,54,20.90
2017,06,23,08,55,20.90
2017,06,23,08,56,21.00
2017,06,23,08,57,21.00
2017,06,23,08,58,21.10
2017,06,23,08,59,21.10
2017,06,23,09,00,21.10
2017,06,23,09,01,21.10
2017,06,23,09,02,21.20
2017,06,23,09,03,21.20
2017,06,23,09,04,21.20
2017,06,23,09,05,21.30
2017,06,23,09,06,21.30
2017,06,23,09,07,21.40
2017,06,23,09,08,21.50
2017,06,23,09,09,21.50
2017,06,23,09,10,21.60
2017,06,23,09,11,21.60
2017,06,23,09,12,21.60
2017,06,23,09,13,21.70
2017,06,23,09,14,21.70
2017,06,23,09,15,21.70
2017,06,23,09,16,21.70
2017,06,23,09,17,21.60
2017,06,23,09,18,21.60
2017,06,23,09,19,21.60
2017,06,23,09,20,21.60
2017,06,23,09,21,21.60
2017,06,23,09,22,21.60
2017,06,23,09,23,21.60
2017,06,23,09,24,21.60
2017,06,23,09,25,21.60
2017,06,23,09,26,21.60
2017,06,23,09,27,21.60
2017,06,23,09,28,21.60
2017,06,23,09,29,21.50
2017,06,23,09,30,21.60
2017,06,23,09,31,21.60
2017,06,23,09,32,21.60
2017,06,23,09,33,21.70
2017,06,23,09,34,21.70
2017,06,23,09,35,21.70
2017,06,23,09,36,21.70
2017,06,23,09,37,21.80
2017,06,23,09,38,21.80
2017,06,23,09,39,21.90
2017,06,23,09,40,21.90
2017,06,23,09,41,22.00
2017,06,23,09,42,22.10
2017,06,23,09,43,22.10
2017,06,23,09,44,22.20
2017,06,23,09,45,22.20
2017,06,23,09,46,22.30
2017,06,23,09,47,22.30
2017,06,23,09,48,22.40
2017,06,23,09,49,22.40
2017,06,23,09,50,22.50
2017,06,23,09,51,22.60
2017,06,23,09,52,22.60
2017,06,23,09,53,22.70
2017,06,23,09,54,22.70
2017,06,23,09,55,22.80
2017,06,23,09,56,22.80
2017,06,23,09,57,22.90
2017,06,23,09,58,22.90
2017,06,23,09,59,22.90
2017,06,23,10,00,22.90
2017,06,23,10,01,22.80
2017,06,23,10,02,22.80
2017,06,23,10,03,22.80
2017,06,23,10,04,22.80
2017,06,23,10,05,22.80
2017,06,23,10,06,22.80
2017,06,23,10,07,22.80
2017,06,23,10,08,22.80
2017,06,23,10,09,22.80
2017,06,23,10,10,22.80
2017,06,23,10,11,22.80
2017,06,23,10,12,22.80
2017,06,23,10,13,22.90
2017,06,23,10,14,23.00
2017,06,23,10,15,23.00
2017,06,23,10,16,23.00
2017,06,23,10,17,23.00
2017,06,23,10,18,23.00
2017,06,23,10,19,23.00
2017,06,23,10,20,23.10
2017,06,23,10,21,23.10
2017,06,23,10,22,23.20
2017,06,23,10,23,23.20
2017,06,23,10,24,23.30
2017,06,23,10,25,23.30
2017,06,23,10,26,23.40
2017,06,23,10,27,23.50
2017,06,23,10,28,23.60
2017,06,23,10,29,23.60
2017,06,23,10,30,23.60
2017,06,23,10,31,23.60
2017,06,23,10,32,23.50
2017,06,23,10,33,23.40
2017,06,23,10,34,23.30
2017,06,23,10,35,23.30
2017,06,23,10,36,23.40
2017,06,23,10,37,23.40
2017,06,23,10,38,23.40
2017,06,23,10,39,23.50
2017,06,23,10,40,23.60
2017,06,23,10,41,23.60
2017,06,23,10,42,23.60
2017,06,23,10,43,23.70
2017,06,23,10,44,23.70
2017,06,23,10,45,23.70
2017,06,23,10,46,23.70
2017,06,23,10,47,23.70
2017,06,23,10,48,23.70
2017,06,23,10,49,23.80
2017,06,23,10,50,23.90
2017,06,23,10,51,24.00
2017,06,23,10,52,24.00
2017,06,23,10,53,24.10
2017,06,23,10,54,24.20
2017,06,23,10,55,24.20
2017,06,23,10,56,24.20
2017,06,23,10,57,24.20
2017,06,23,10,58,24.20
2017,06,23,10,59,24.20
2017,06,23,11,00,24.20
2017,06,23,11,01,24.20
2017,06,23,11,02,24.30
2017,06,23,11,03,24.30
2017,06,23,11,04,24.20
2017,06,23,11,05,24.20
2017,06,23,11,06,24.10
2017,06,23,11,07,24.10
2017,06,23,11,08,24.10
2017,06,23,11,09,24.10
2017,06,23,11,10,24.20
2017,06,23,11,11,24.30
2017,06,23,11,12,24.30
2017,06,23,11,13,24.40
2017,06,23,11,14,24.40
2017,06,23,11,15,24.30
2017,06,23,11,16,24.20
2017,06,23,11,17,24.20
2017,06,23,11,18,24.10
2017,06,23,11,19,24.10
2017,06,23,11,20,24.10
2017,06,23,11,21,24.10
2017,06,23,11,22,24.20
2017,06,23,11,23,24.20
2017,06,23,11,24,24.30
2017,06,23,11,25,24.30
2017,06,23,11,26,24.30
2017,06,23,11,27,24.30
2017,06,23,11,28,24.30
2017,06,23,11,29,24.40
2017,06,23,11,30,24.40
2017,06,23,11,31,24.50
2017,06,23,11,32,24.60
2017,06,23,11,33,24.60
2017,06,23,11,34,24.40
2017,06,23,11,35,24.20
2017,06,23,11,36,24.00
2017,06,23,11,37,23.90
2017,06,23,11,38,23.90
2017,06,23,11,39,24.00
2017,06,23,11,40,24.10
2017,06,23,11,41,24.20
2017,06,23,11,42,24.40
2017,06,23,11,43,24.50
2017,06,23,11,44,24.70
2017,06,23,11,45,24.70
2017,06,23,11,46,24.80
2017,06,23,11,47,24.70
2017,06,23,11,48,24.60
2017,06,23,11,49,24.60
2017,06,23,11,50,24.70
2017,06,23,11,51,24.70
2017,06,23,11,52,24.60
2017,06,23,11,53,24.50
2017,06,23,11,54,24.30
2017,06,23,11,55,24.30
2017,06,23,11,56,24.40
2017,06,23,11,57,24.50
2017,06,23,11,58,24.60
2017,06,23,11,59,24.50
2017,06,23,12,00,24.60
2017,06,23,12,01,24.60
2017,06,23,12,02,24.70
2017,06,23,12,03,24.60
2017,06,23,12,04,24.60
2017,06,23,12,05,24.50
2017,06,23,12,06,24.50
2017,06,23,12,07,24.40
2017,06,23,12,08,24.20
2017,06,23,12,09,24.10
2017,06,23,12,10,24.10
2017,06,23,12,11,24.10
2017,06,23,12,12,24.10
2017,06,23,12,13,24.20
2017,06,23,12,14,24.20
2017,06,23,12,15,24.30
2017,06,23,12,16,24.50
2017,06,23,12,17,24.60
2017,06,23,12,18,24.70
2017,06,23,12,19,24.60
2017,06,23,12,20,24.50
2017,06,23,12,21,24.30
2017,06,23,12,22,24.10
2017,06,23,12,23,24.10
2017,06,23,12,24,24.00
2017,06,23,12,25,24.10
2017,06,23,12,26,24.10
2017,06,23,12,27,24.00
2017,06,23,12,28,23.90
2017,06,23,12,29,23.90
2017,06,23,12,30,24.00
2017,06,23,12,31,24.10
2017,06,23,12,32,24.20
2017,06,23,12,33,24.40
2017,06,23,12,34,24.50
2017,06,23,12,35,24.50
2017,06,23,12,36,24.60
2017,06,23,12,37,24.70
2017,06,23,12,38,24.80
2017,06,23,12,39,24.80
2017,06,23,12,40,24.90
2017,06,23,12,41,24.90
2017,06,23,12,42,24.90
2017,06,23,12,43,24.90
2017,06,23,12,44,25.00
2017,06,23,12,45,25.00
2017,06,23,12,46,25.00
2017,06,23,12,47,25.00
2017,06,23,12,48,24.90
2017,06,23,12,49,24.90
2017,06,23,12,50,24.90
2017,06,23,12,51,24.90
2017,06,23,12,52,24.90
2017,06,23,12,53,25.00
2017,06,23,12,54,25.00
2017,06,23,12,55,25.10
2017,06,23,12,56,25.20
2017,06,23,12,57,25.20
2017,06,23,12,58,25.10
2017,06,23,12,59,25.10
2017,06,23,13,00,25.10
2017,06,23,13,01,25.20
2017,06,23,13,02,25.20
2017,06,23,13,03,25.20
2017,06,23,13,04,25.20
2017,06,23,13,05,25.20
2017,06,23,13,06,25.10
2017,06,23,13,07,25.00
2017,06,23,13,08,25.00
2017,06,23,13,09,25.10
2017,06,23,13,10,25.10
2017,06,23,13,11,25.10
2017,06,23,13,12,25.20
2017,06,23,13,13,25.00
2017,06,23,13,14,24.80
2017,06,23,13,15,24.60
2017,06,23,13,16,24.50
2017,06,23,13,17,24.50
2017,06,23,13,18,24.60
2017,06,23,13,19,24.60
2017,06,23,13,20,24.70
2017,06,23,13,21,24.80
2017,06,23,13,22,24.80
2017,06,23,13,23,24.80
2017,06,23,13,24,24.80
2017,06,23,13,25,24.80
2017,06,23,13,26,24.90
2017,06,23,13,27,25.00
2017,06,23,13,28,25.20
2017,06,23,13,29,25.40
2017,06,23,13,30,25.40
2017,06,23,13,31,25.40
2017,06,23,13,32,25.20
2017,06,23,13,33,25.10
2017,06,23,13,34,25.10
2017,06,23,13,35,25.10
2017,06,23,13,36,25.20
2017,06,23,13,37,25.20
2017,06,23,13,38,25.10
2017,06,23,13,39,25.10
2017,06,23,13,40,25.20
2017,06,23,13,41,25.10
2017,06,23,13,42,25.20
2017,06,23,13,43,25.20
2017,06,23,13,44,25.30
2017,06,23,13,45,25.40
2017,06,23,13,46,25.60
2017,06,23,13,47,25.60
2017,06,23,13,48,25.60
2017,06,23,13,49,25.50
2017,06,23,13,50,25.50
2017,06,23,13,51,25.30
2017,06,23,13,52,25.20
2017,06,23,13,53,25.20
2017,06,23,13,54,25.20
2017,06,23,13,55,25.30
2017,06,23,13,56,25.50
2017,06,23,13,57,25.70
2017,06,23,13,58,25.80
2017,06,23,13,59,25.90
2017,06,23,14,00,26.00
2017,06,23,14,01,26.10
2017,06,23,14,02,26.20
2017,06,23,14,03,26.30
2017,06,23,14,04,26.30
2017,06,23,14,05,26.40
2017,06,23,14,06,26.40
2017,06,23,14,07,26.40
2017,06,23,14,08,26.40
2017,06,23,14,09,26.50
2017,06,23,14,10,26.50
2017,06,23,14,11,26.70
2017,06,23,14,12,26.80
2017,06,23,14,13,26.90
2017,06,23,14,14,27.00
2017,06,23,14,15,27.00
2017,06,23,14,16,27.00
2017,06,23,14,17,26.90
2017,06,23,14,18,26.80
2017,06,23,14,19,26.70
2017,06,23,14,20,26.70
2017,06,23,14,21,26.70
2017,06,23,14,22,26.60
2017,06,23,14,23,26.60
2017,06,23,14,24,26.60
2017,06,23,14,25,26.70
2017,06,23,14,26,26.70
2017,06,23,14,27,26.60
2017,06,23,14,28,26.60
2017,06,23,14,29,26.70
2017,06,23,14,30,26.70
2017,06,23,14,31,26.80
2017,06,23,14,32,26.90
2017,06,23,14,33,27.00
2017,06,23,14,34,27.20
2017,06,23,14,35,27.40
2017,06,23,14,36,27.60
2017,06,23,14,37,27.70
2017,06,23,14,38,27.90
2017,06,23,14,39,28.00
2017,06,23,14,40,28.00
2017,06,23,14,41,28.10
2017,06,23,14,42,28.10
2017,06,23,14,43,28.10
2017,06,23,14,44,28.20
2017,06,23,14,45,28.20
2017,06,23,14,46,28.10
2017,06,23,14,47,28.10
2017,06,23,14,48,28.00
2017,06,23,14,49,28.10
2017,06,23,14,50,28.10
2017,06,23,14,51,28.20
2017,06,23,14,52,28.10
2017,06,23,14,53,27.90
2017,06,23,14,54,27.70
2017,06,23,14,55,27.50
2017,06,23,14,56,27.40
2017,06,23,14,57,27.40
2017,06,23,14,58,27.50
2017,06,23,14,59,27.60
2017,06,23,15,00,27.70
2017,06,23,15,01,27.90
2017,06,23,15,02,27.90
2017,06,23,15,03,28.00
2017,06,23,15,04,28.10
2017,06,23,15,05,28.10
2017,06,23,15,06,28.00
2017,06,23,15,07,27.90
2017,06,23,15,08,27.70
2017,06,23,15,09,27.50
2017,06,23,15,10,27.40
2017,06,23,15,11,27.40
2017,06,23,15,12,27.50
2017,06,23,15,13,27.50
2017,06,23,15,14,27.50
2017,06,23,15,15,27.30
2017,06,23,15,16,27.20
2017,06,23,15,17,27.20
2017,06,23,15,18,27.20
2017,06,23,15,19,27.30
2017,06,23,15,20,27.50
2017,06,23,15,21,27.50
2017,06,23,15,22,27.50
2017,06,23,15,23,27.30
2017,06,23,15,24,27.10
2017,06,23,15,25,27.00
2017,06,23,15,26,27.10
2017,06,23,15,27,27.10
2017,06,23,15,28,27.10
2017,06,23,15,29,27.10
2017,06,23,15,30,27.00
2017,06,23,15,31,27.00
2017,06,23,15,32,26.90
2017,06,23,15,33,26.90
2017,06,23,15,34,26.90
2017,06,23,15,35,26.90
2017,06,23,15,36,26.90
2017,06,23,15,37,26.80
2017,06,23,15,38,26.80
2017,06,23,15,39,26.80
2017,06,23,15,40,26.70
2017,06,23,15,41,26.50
2017,06,23,15,42,26.50
2017,06,23,15,43,26.50
2017,06,23,15,44,26.50
2017,06,23,15,45,26.60
2017,06,23,15,46,26.60
2017,06,23,15,47,26.50
2017,06,23,15,48,26.50
2017,06,23,15,49,26.50
2017,06,23,15,50,26.50
2017,06,23,15,51,26.50
2017,06,23,15,52,26.60
2017,06,23,15,53,26.70
2017,06,23,15,54,26.80
2017,06,23,15,55,26.90
2017,06,23,15,56,26.90
2017,06,23,15,57,27.00
2017,06,23,15,58,27.10
2017,06,23,15,59,27.10
2017,06,23,16,00,27.10
2017,06,23,16,01,27.00
2017,06,23,16,02,27.00
2017,06,23,16,03,27.00
2017,06,23,16,04,27.10
2017,06,23,16,05,27.10
2017,06,23,16,06,27.00
2017,06,23,16,07,27.00
2017,06,23,16,08,27.00
2017,06,23,16,09,26.90
2017,06,23,16,10,26.80
2017,06,23,16,11,26.70
2017,06,23,16,12,26.70
2017,06,23,16,13,26.80
2017,06,23,16,14,26.70
2017,06,23,16,15,26.70
2017,06,23,16,16,26.80
2017,06,23,16,17,26.90
2017,06,23,16,18,26.90
2017,06,23,16,19,26.90
2017,06,23,16,20,26.80
2017,06,23,16,21,26.80
2017,06,23,16,22,26.80
2017,06,23,16,23,26.90
2017,06,23,16,24,26.90
2017,06,23,16,25,27.00
2017,06,23,16,26,27.10
2017,06,23,16,27,27.10
2017,06,23,16,28,27.10
2017,06,23,16,29,27.10
2017,06,23,16,30,26.90
2017,06,23,16,31,26.90
2017,06,23,16,32,26.80
2017,06,23,16,33,26.80
2017,06,23,16,34,26.90
2017,06,23,16,35,26.90
2017,06,23,16,36,27.00
2017,06,23,16,37,27.20
2017,06,23,16,38,27.10
2017,06,23,16,39,27.00
2017,06,23,16,40,26.90
2017,06,23,16,41,27.00
2017,06,23,16,42,27.00
2017,06,23,16,43,27.00
2017,06,23,16,44,27.10
2017,06,23,16,45,27.10
2017,06,23,16,46,27.10
2017,06,23,16,47,27.10
2017,06,23,16,48,27.00
2017,06,23,16,49,26.90
2017,06,23,16,50,26.70
2017,06,23,16,51,26.70
2017,06,23,16,52,26.60
2017,06,23,16,53,26.50
2017,06,23,16,54,26.40
2017,06,23,16,55,26.40
2017,06,23,16,56,26.30
2017,06,23,16,57,26.30
2017,06,23,16,58,26.30
2017,06,23,16,59,26.20
2017,06,23,17,00,26.20
2017,06,23,17,01,26.20
2017,06,23,17,02,26.20
2017,06,23,17,03,26.30
2017,06,23,17,04,26.30
2017,06,23,17,05,26.30
2017,06,23,17,06,26.30
2017,06,23,17,07,26.40
2017,06,23,17,08,26.40
2017,06,23,17,09,26.30
2017,06,23,17,10,26.30
2017,06,23,17,11,26.20
2017,06,23,17,12,26.20
2017,06,23,17,13,26.10
2017,06,23,17,14,26.10
2017,06,23,17,15,26.20
2017,06,23,17,16,26.20
2017,06,23,17,17,26.30
2017,06,23,17,18,26.40
2017,06,23,17,19,26.40
2017,06,23,17,20,26.50
2017,06,23,17,21,26.60
2017,06,23,17,22,26.60
2017,06,23,17,23,26.70
2017,06,23,17,24,26.80